Location: Paineville
(37.8089°N, 89.0017°W)
Time: 00:34:53
(UTC+00:00)

Daily predictions for brighter satellites

Satellite Brightness Start Highest point End
(mag) Time Altitude Azimuth Time Altitude Azimuth Time Altitude Azimuth
H-2A R/B 2.9 00:16:46 10° SE 00:20:53 28° ENE 00:25:07 10° N
Cosmos 158 Rocket 4.0 00:16:08 10° NNW 00:21:22 64° ENE 00:26:25 10° SSE
Iridium 4 Rocket 3.5 00:19:35 10° SSE 00:24:15 59° E 00:29:24 10° N
ARGOS 4.2 00:20:33 10° ESE 00:24:48 25° ENE 00:29:04 10° NNE
Cosmos 1437 3.7 00:25:56 10° NNE 00:28:26 24° ENE 00:30:55 10° SE
SJ 16-02 2.8 00:25:25 10° SW 00:29:35 42° WNW 00:33:46 10° N
CZ-2C R/B 4.0 00:28:22 10° NE 00:32:15 19° E 00:36:09 10° SE
Milstar 3 Cent rocket 4.0 00:28:15 10° SSW 00:33:03 17° SSE 00:36:40 10° SE
Cosmos 1939 Rocket 3.6 00:29:12 10° S 00:33:15 60° W 00:37:21 10° NNW
Lacrosse 5 rocket 4.1 00:31:45 10° WNW 00:34:00 14° NNW 00:36:19 10° N
Helios 1A Rocket 3.7 00:30:17 10° S 00:34:17 56° W 00:38:21 10° NNW
SL-16 R/B 3.8 00:29:08 10° NW 00:34:22 39° WSW 00:39:34 10° S
Cosmos 1378 Rocket 4.0 00:30:11 10° NNW 00:34:28 67° W 00:38:43 10° S
NOSS 2-2 (E) 2.9 00:32:07 10° SSW 00:35:35 67° ESE 00:39:13 10° NE
Okean 2 Rocket 4.3 00:32:49 10° SE 00:36:18 22° E 00:39:46 10° NE
Cosmos 1900 4.4 00:33:51 10° NNW 00:39:03 86° ENE 00:44:11 10° SSE
CZ-2D R/B 3.7 00:35:57 10° S 00:39:47 66° W 00:43:40 10° NNW
Cosmos 2263 Rocket 2.4 00:34:24 10° SSW 00:39:58 78° WNW 00:45:34 10° NNE
Okean-O 2.9 00:35:52 10° S 00:40:17 72° WSW 00:44:43 10° NNW
ATLAS 2AS CENTAUR R/B 4.5 00:38:39 10° ESE 00:40:20 11° E 00:40:32 11° E
DELTA 2 R/B (1) 3.6 00:36:22 10° WNW 00:41:56 86° NNE 00:46:52 13° ESE
HJ-1C 3.9 00:38:55 10° SE 00:41:58 37° ENE 00:45:02 10° N
Meteor 2-9 Rocket 4.3 00:37:34 10° S 00:43:25 82° E 00:49:16 10° N
NOSS 2-2 (D) 3.0 00:40:37 10° SSW 00:44:06 62° ESE 00:47:41 10° NE
CZ-2C R/B 3.1 00:40:20 10° SSE 00:45:24 66° ENE 00:50:48 10° N
Cosmos 1844 Rocket 3.7 00:43:13 10° SSE 00:47:25 22° E 00:51:37 10° NE
Cosmos 1300 Rocket 4.4 00:44:32 10° SSE 00:48:17 28° E 00:52:04 10° NNE
USA 116 3.9 00:49:01 10° N 00:52:31 71° WNW 00:56:26 10° SSW
Ariane Rocket 4.0 00:50:37 14° ESE 00:53:59 26° ENE 00:58:09 10° NNE
YAOGAN 1 2.9 00:49:55 10° S 00:54:13 70° WSW 00:58:32 10° NNW
USA 186 3.2 00:54:52 18° ENE 00:55:07 19° ENE 00:57:23 10° NNE
Cosmos 1943 3.1 00:54:34 10° NNW 01:00:14 72° ENE 01:05:53 10° SSE
Okean 2 3.7 00:57:15 10° NNW 01:01:24 70° W 01:05:31 10° S
Cosmos 1464 Rocket 4.1 00:55:53 10° SSE 01:01:46 52° E 01:07:42 10° NNE
Cosmos 2298 Rocket 4.5 00:57:45 10° SSE 01:02:38 39° ESE 01:07:34 10° NE
Meteor 1-12 Rocket 4.4 00:58:01 10° S 01:03:45 53° E 01:09:25 10° NNE
CSL-04 Debris 4.3 01:02:22 10° S 01:07:45 79° WSW 01:13:10 10° NNW
CZ-4 R/B 3.3 01:08:08 10° SSW 01:11:58 34° W 01:15:49 10° NNW
Meteor 1-21 4.3 01:07:40 10° NNW 01:13:17 80° W 01:18:51 10° S
CSL-04 Rocket 4.0 01:11:46 10° S 01:17:07 69° WSW 01:22:35 10° NNW
Cosmos 2151 Rocket 3.8 01:13:12 10° SSE 01:17:24 44° E 01:21:40 10° NNE
Cosmos 1867 3.9 01:13:36 10° NNW 01:18:53 48° NE 01:21:22 28° ESE
Cosmos 1603 4.0 01:14:20 10° NNW 01:19:56 66° WSW 01:25:28 10° S
CZ-2C R/B 1.1 01:18:01 10° WSW 01:21:28 51° S 01:22:04 44° SE
Cosmos 1025 Rocket 3.3 01:18:14 10° N 01:22:26 45° E 01:23:51 33° SE
USA 102 4.3 01:22:51 32° SSE 01:25:17 90° NNW 01:30:55 10° NNW
Cosmos 372 Rocket 4.1 01:22:48 10° SSW 01:28:02 80° WNW 01:33:18 10° NNE
Cosmos 1891 Rocket 4.4 01:23:13 10° S 01:29:25 86° W 01:35:31 10° N
Cosmos 2150 Rocket 3.9 01:27:18 10° S 01:32:35 69° ESE 01:37:59 10° NNE
DMSP B5D2-2 4.1 01:27:41 10° NNE 01:32:54 59° E 01:38:05 10° S
BREEZE-M DEB (TANK) 3.6 01:35:41 10° NW 01:39:09 54° NE 01:42:24 32° E
Cosmos 1125 Rocket 3.5 01:37:35 10° S 01:42:44 55° ESE 01:47:56 10° NNE
SJ-6B 2.7 01:44:19 63° NE 01:44:19 63° NE 01:47:41 10° N
Cosmos 2084 Rocket 4.4 01:40:18 10° NW 01:44:35 46° WSW 01:46:48 25° S
Cosmos 1707 3.1 01:40:57 10° NNW 01:44:44 61° W 01:46:32 28° SSW
Resurs 01 Rocket 3.4 01:49:34 19° NE 01:49:34 19° NE 01:51:24 10° NNE
ISS -1.7 01:49:19 10° W 01:52:09 25° NNW 01:53:14 21° N
USA 234 3.2 01:45:43 10° NE 01:52:17 88° SE 01:58:51 10° SW
Cosmos 2034 Rocket 4.1 01:52:27 10° S 01:58:49 77° W 02:05:12 10° N
H-2A R/B 3.8 01:55:57 10° SSW 02:00:13 29° W 02:04:35 10° NW
Nadezhda 4 Rocket 3.8 01:54:15 10° N 02:00:24 87° E 02:03:08 35° S
Cosmos 468 4.4 01:56:24 10° NNW 02:01:43 67° ENE 02:01:53 66° E
ARGOS 4.4 01:59:50 10° SSW 02:04:48 39° W 02:09:49 10° NNW
In-Cosmos 22 4.4 02:00:06 10° NNW 02:05:21 64° W 02:07:58 30° SSW
CZ-2C R/B 3.5 02:07:24 10° N 02:12:47 53° WNW 02:18:11 10° SSW
Cosmos 1048 Rocket 3.9 02:10:07 10° NNW 02:15:16 82° NNE 02:15:16 82° NNE
Cosmos 1844 3.9 02:14:05 10° SSW 02:19:47 71° WNW 02:25:27 10° NNE
DELTA 2 R/B (1) 4.4 02:22:58 10° W 02:27:38 40° SW 02:27:38 40° SW
ATLAS 2AS CENTAUR R/B 3.1 02:22:11 10° SSW 02:33:17 37° NE 02:37:49 10° NE
Cosmos 1844 Rocket 3.7 02:25:38 10° SW 02:30:55 45° WNW 02:36:16 10° N
Cosmos 1634 Rocket 4.0 02:32:53 71° NNE 02:32:53 71° NNE 02:38:21 10° N
Ariane Rocket 4.4 02:30:49 25° SW 02:32:45 33° W 02:37:20 10° NNW
Cosmos 2285 Rocket 4.4 02:31:47 10° SSW 02:37:59 62° WNW 02:44:16 10° NNE
SPOT 3 Rocket 4.4 02:46:18 47° NW 02:46:18 47° NW 02:50:11 10° NNW
CENTAUR R/B 3.1 02:38:44 10° NNW 02:47:00 69° NE 02:47:17 69° ENE
ATLAS 3B R/B 4.1 02:47:07 10° NNW 02:51:46 26° NNE 02:51:46 26° NNE
USA 238 DEB 3.9 02:48:20 10° NW 02:55:26 76° WSW 02:55:26 76° WSW
USA 238 3.9 02:48:26 10° NW 02:55:31 76° W 02:55:31 76° W
ATLAS 2AS CENTAUR R/B 4.4 04:14:34 10° WSW 04:21:30 32° NW 04:28:25 10° NNE
Lacrosse 5 4.4 08:09:35 18° NE 08:09:35 18° NE 08:10:50 10° NE
USA 267 4.2 08:00:14 10° NE 08:04:18 41° NE 08:04:18 41° NE
ADEOS II 4.2 08:20:30 10° NNE 08:22:11 21° N 08:22:11 21° N
IDEFIX/ARIANE 42P 3.9 08:33:14 10° NNE 08:36:52 37° ENE 08:36:52 37° ENE
USA 234 4.4 08:33:23 10° E 08:39:18 38° NNE 08:45:13 10° NNW
ARIANE 5 R/B 4.0 08:40:23 10° NNE 08:43:09 33° NNE 08:43:09 33° NNE
H-2A R/B 4.2 08:59:24 10° ESE 09:02:57 25° ENE 09:06:33 10° NNE
Meteor 1-26 Rocket 4.4 09:13:43 59° N 09:13:43 59° N 09:18:05 10° N
ASTEX 1 3.9 09:10:21 10° N 09:14:18 56° NNE 09:14:18 56° NNE
BREEZE-M DEB (TANK) 4.0 09:13:55 49° SSW 09:16:11 66° SSE 09:20:29 10° ENE
Cosmos 1697 Rocket 3.6 09:19:35 35° NNW 09:19:35 35° NNW 09:23:27 10° N
CZ-2C R/B 4.0 09:14:18 10° NNE 09:18:56 33° E 09:23:04 13° SSE
SL-4 R/B 4.2 09:19:51 21° SE 09:20:20 21° SE 09:23:52 10° ENE
Cosmos 1980 Rocket 2.1 09:22:31 73° NW 09:22:31 73° NW 09:27:57 10° NNE
Cosmos 2322 Rocket 4.1 09:23:33 10° SSE 09:28:08 26° ESE 09:32:46 10° NE
Landsat 5 4.5 09:24:25 10° SSE 09:28:45 50° ENE 09:33:07 10° N
Cosmos 2263 Rocket 3.7 09:29:49 10° N 09:34:59 35° ENE 09:40:09 10° SE
SL-16 R/B 3.4 09:31:25 14° SSE 09:35:50 38° ESE 09:41:02 10° NE
Meteor 1-14 Rocket 4.0 09:35:25 10° N 09:41:02 85° W 09:46:34 10° S
CZ-2C R/B 4.0 09:37:56 10° N 09:40:05 32° N 09:40:05 32° N
Spot 4 Rocket 4.4 09:37:13 10° N 09:41:40 46° NW 09:41:40 46° NW
NOSS 3-3 (A) 3.7 09:45:00 50° SW 09:46:36 82° WNW 09:52:55 10° NNE
NOSS 3-3 (C) 3.7 09:45:10 50° SW 09:46:44 82° WNW 09:53:00 10° NNE
Lacrosse 5 3.3 09:48:47 24° NW 09:49:08 24° NNW 09:53:15 10° NNE
USA 267 4.5 09:43:49 10° NNE 09:49:10 28° NNW 09:51:38 22° WNW
CSL-04 DEB 4.5 09:45:45 10° SSE 09:50:00 84° ENE 09:54:22 10° NNW
Cosmos 1238 Rocket 3.8 09:43:41 10° N 09:50:16 72° W 09:56:11 10° S
Meteor 2-6 Rocket 4.1 09:48:56 25° S 09:52:18 88° W 09:58:06 10° N
BREEZE-M DEB (TANK) 4.4 09:50:54 37° WSW 09:54:18 78° NNW 10:21:48 10° ENE
Cosmos 921 Rocket 2.7 09:55:09 68° WSW 09:55:26 71° WNW 09:59:37 10° NNE
CZ-4C R/B 4.0 09:57:19 37° NNW 09:57:19 37° NNW 09:59:36 10° NNW
Meteor 1-5 Rocket 4.3 09:53:04 10° N 09:58:24 72° E 10:03:48 10° SSE
Cosmos 44 3.7 09:58:36 39° NW 09:58:36 39° NW 10:02:53 10° NNE
Cosmos 2228 Rocket 3.1 10:01:20 51° W 10:01:33 51° W 10:05:51 10° N
IRIDIUM 114 4.3 10:00:13 10° N 10:05:28 85° E 10:10:41 10° S
Cosmos 1934 Rocket 4.2 10:04:50 10° NNW 10:10:28 42° W 10:16:07 10° SSW
Meteor 1-4 Rocket 2.2 10:09:31 43° SSW 10:10:33 83° W 10:14:02 10° N
X-37B 2.6 10:10:31 19° NNW 10:11:32 22° N 10:14:05 10° ENE
GENESIS II 4.5 10:11:43 45° W 10:12:27 52° NW 10:16:25 10° NNE
ADEOS 4.0 10:08:27 10° NNE 10:13:38 62° ESE 10:18:46 10° S
IRIDIUM 103 4.2 10:09:22 10° N 10:14:35 78° W 10:19:47 10° S
Cosmos 1536 4.3 10:12:36 10° N 10:16:27 39° E 10:20:16 10° SSE
IDEFIX/ARIANE 42P 3.9 10:13:38 10° NNW 10:17:31 21° WNW 10:17:40 21° WNW
ADEOS Rocket 3.3 10:12:57 10° SSE 10:20:02 83° ENE 10:26:24 10° NNW
Cosmos 1484 Rocket 3.8 10:16:20 10° NNE 10:20:13 49° E 10:24:06 10° S
USA 234 3.2 10:15:34 10° SE 10:22:02 65° SW 10:28:31 10° NW
Cosmos 1869 Rocket 3.5 10:19:08 10° NNW 10:23:25 61° W 10:27:40 10° S
ARIANE 5 R/B 4.4 10:21:37 10° NW 10:23:29 13° NW 10:23:29 13° NW
ALOS 3.0 10:19:23 10° NNE 10:23:57 55° E 10:28:31 10° S
Meteor 1-11 Rocket 3.9 10:19:38 10° N 10:25:26 81° E 10:31:05 10° S
Cosmos 1153 Rocket 4.5 10:20:46 10° N 10:27:10 82° W 10:33:28 10° S
ERS-2 2.2 10:26:15 10° S 10:29:49 52° WSW 10:33:25 10° NNW
Meteor 1-31 Rocket 3.5 10:27:19 10° NNE 10:31:04 53° E 10:34:50 10° S
IRIDIUM 106 4.4 10:27:49 10° NNW 10:32:52 51° W 10:37:53 10° SSW
FALCON 9 DEB 3.0 10:31:12 26° SW 10:32:59 89° SE 10:36:25 10° NE
Cosmos 1605 Rocket 4.3 10:27:53 10° NNW 10:33:53 45° W 10:39:54 10° SSW
Cosmos 841 Rocket 4.0 10:29:02 10° S 10:34:09 62° ESE 10:39:20 10° NNE
Meteor 1-27 Rocket 3.8 10:28:42 10° SSW 10:34:38 78° W 10:40:35 10° N
SJ 16-02 1.3 10:34:07 10° NNW 10:38:25 56° WSW 10:42:42 10° S
H-2A R/B 3.0 10:35:09 10° SSW 10:38:47 26° W 10:42:31 10° NW
PSLV R/B 4.4 10:36:15 10° N 10:39:53 29° WNW 10:42:13 17° WSW
Cosmos 1763 Rocket 3.7 10:39:21 10° SW 10:44:32 52° WNW 10:49:43 10° N
Cosmos 1000 Rocket 4.5 10:39:11 10° S 10:45:24 88° W 10:51:36 10° N
Cosmos 1570 Rocket 4.2 10:41:31 10° SSW 10:46:48 81° ESE 10:52:09 10° NNE
Cosmos 1812 4.2 10:47:59 17° W 10:49:00 19° WNW 10:51:46 10° NNW
Cosmos 2360 Rocket 2.4 10:50:34 10° SSW 10:56:13 80° ESE 11:01:54 10° NNE
ERBS 4.1 10:54:41 13° WNW 10:56:30 19° NW 10:58:59 10° N
SJ-12 4.3 10:52:44 10° NNE 10:56:52 68° ESE 11:00:58 10° S
CZ-2C R/B 3.5 10:52:42 10° NNW 10:56:59 27° WNW 11:01:17 10° SW
CZ-4B R/B 1.7 10:55:25 10° S 10:58:19 38° W 11:01:20 10° NNW
SL-4 R/B 2.5 10:55:28 12° WSW 10:59:40 62° NW 11:04:26 10° NE
Meteor 2-20 4.5 10:55:10 10° S 11:01:19 85° W 11:07:28 10° N
COSMO-SKYMED 1 3.3 10:57:45 10° SSE 11:02:01 60° ENE 11:06:17 10° N
SL-8 R/B 3.9 10:57:22 10° NW 11:02:09 74° NNE 11:06:55 10° ESE
Cosmos 1666 3.4 11:00:43 10° NNW 11:04:08 31° W 11:07:29 10° SSW
Cosmos 1980 Rocket 4.1 11:05:37 10° WNW 11:07:15 11° NW 11:08:51 10° NNW
DEBRIS 3.2 11:04:38 10° WNW 11:07:29 72° SW 11:15:54 10° SE
Cosmos 2100 Rocket 4.1 11:02:35 10° NNW 11:08:52 61° W 11:15:06 10° S
METEOR-M 4.2 11:03:50 10° N 11:09:08 65° WNW 11:14:25 10° SSW
Cosmos 990 Rocket 4.3 11:05:41 10° NNW 11:10:35 43° WSW 11:15:30 10° S
Cosmos 1802 Rocket 4.0 11:05:25 10° N 11:11:37 79° W 11:17:52 10° S
Cosmos 2322 Rocket 2.7 11:06:38 10° SW 11:11:55 40° WNW 11:17:16 10° N
FENGYUN 3A 3.9 11:08:17 10° N 11:13:27 49° WNW 11:18:37 10° SW
Cosmos 44 Rocket 3.2 11:09:39 10° SW 11:14:19 69° WNW 11:19:08 10° NNE
Cosmos 540 Rocket 3.7 11:11:58 10° SW 11:16:58 51° WNW 11:22:02 10° N
Cosmos 2237 4.3 11:11:51 10° SW 11:17:30 62° WNW 11:23:10 10° NNE
Cosmos 2263 Rocket 3.0 11:13:55 10° NW 11:18:45 30° WSW 11:23:35 10° SSW
SL-16 R/B 3.2 11:15:09 10° WSW 11:19:58 28° WNW 11:24:51 10° N
